User: anonymous   Login
Location: Unspecified
(0.0000°N, 0.0000°E)
Time: 12:38:42
(UTC+02:00)
Language:

Envisat - Orbit

View from above orbital plane
View from above orbital plane
View from above satellite
View from above satellite

Ground track
Ground track

The orbit data is extracted from the following two-line orbital elements,

1 27386U 02009A   18267.55443406 -.00000001 +00000-0 +13192-4 0  9994
2 27386 098.1772 296.8926 0001219 089.1644 076.4592 14.37930182867809
Epoch (UTC): 24 September 2018 13:18:23
Eccentricity: 0.0001219
inclination: 98.1772°
perigee height: 764 km
apogee height: 766 km
right ascension of ascending node: 296.8926°
argument of perigee: 89.1644°
revolutions per day: 14.37930182
mean anomaly at epoch: 76.4592°
orbit number at epoch: 86780

The dashed part of the orbit path shows where the satellite is in the earth's shadow,  

DLR